Terug naar catalogus

DANDE

ActiefWetenschapPO
NORAD 39267·PAYLOAD·🇺🇸 United States

Gelanceerd Sep 29, 2013 vanaf Vandenberg Space Force Base

Loading…

Volgende Passages (komende 24 uur)

TLE

VersSource: Space-Track

Epoch: Sep 14, 2026, 14:43 UTC

1 39267U 13055C   26257.61382419  .00009826  00000-0  18032-3 0  9999
2 39267  80.9851  71.5182 0453471 358.9889   1.0351 14.81948475673443

Volg DANDE in realtime met AllMySat

Download on the App Store